Simultaneous Nadir Overpasses (SNOs) Predictions

Prediction of SNOs near equator between AQUA and NPP Satellite Orbit:

Table of predicted SNOs near equator for the next 14.0 days since TLE Epoch: 12/25/2015
Index Date (AQUA) Time (AQUA) AQUA Lat,Lon Date (NPP) Time (NPP) NPP Lat,Lon Distance(km) Time Diff (sec)
1 12/26/2015 14:53:01 -28.17, 156.20 12/26/2015 14:43:30 -28.17, 156.22 1.29 571
2 12/26/2015 15:35:14 1.78, -30.19 12/26/2015 15:26:49 1.78, -30.21 1.22 505
3 12/26/2015 16:23:00 4.03, 138.70 12/26/2015 16:15:50 4.09, 138.44 29.97 430
4 12/26/2015 17:11:15 -8.62, -52.70 12/26/2015 17:05:20 -8.73, -53.22 59.30 355
5 12/26/2015 17:59:22 13.16, 115.95 12/26/2015 17:54:43 13.31, 115.16 87.84 279
6 12/29/2015 07:07:32 -21.08, -86.18 12/29/2015 06:58:22 -21.08, -86.19 0.97 550
7 12/29/2015 07:50:58 -0.94, 86.26 12/29/2015 07:42:56 -0.94, 86.17 10.23 482
8 12/29/2015 08:39:06 5.42,-105.12 12/29/2015 08:32:19 5.51,-105.47 40.24 407
9 12/29/2015 09:27:21 -10.00, 63.49 12/29/2015 09:21:49 -10.15, 62.87 69.25 332
10 12/29/2015 10:15:27 14.54,-127.86 12/29/2015 10:11:11 14.73,-128.74 97.20 256
11 12/31/2015 22:37:04 29.94,-140.14 12/31/2015 22:27:05 29.98,-140.06 9.12 599
12 12/31/2015 23:21:14 -11.10, 31.95 12/31/2015 23:12:24 -11.10, 31.94 0.75 530
13 01/01/2016 00:07:03 -2.29,-157.56 12/31/2015 23:59:24 -2.35,-157.74 20.66 459
14 01/01/2016 00:55:09 6.90, 11.08 01/01/2016 00:48:46 6.99, 10.63 50.42 383
15 01/01/2016 01:43:25 -11.42, 179.68 01/01/2016 01:38:17 -11.57, 178.97 79.16 308
16 01/03/2016 14:53:18 29.10, -24.04 01/03/2016 14:43:43 29.10, -24.05 0.89 575
17 01/03/2016 15:34:51 -0.77, 150.05 01/03/2016 15:26:21 -0.76, 150.04 1.80 510
18 01/03/2016 16:23:07 -3.74, -41.37 01/03/2016 16:15:52 -3.83, -41.64 31.23 435
19 01/03/2016 17:11:13 8.35, 127.28 01/03/2016 17:05:14 8.46, 126.74 60.73 359
20 01/03/2016 17:59:29 -12.86, -64.12 01/03/2016 17:54:45 -13.04, -64.92 89.03 284
21 01/06/2016 07:07:09 19.68, 94.14 01/06/2016 06:57:55 19.68, 94.14 0.62 554
22 01/06/2016 07:50:54 0.71, -93.75 01/06/2016 07:42:49 0.71, -93.86 12.13 485
23 01/06/2016 08:39:09 -5.28, 74.85 01/06/2016 08:32:19 -5.35, 74.48 41.76 410
24 01/06/2016 09:27:17 9.77,-116.53 <
